{"data":{"norad_id":61675,"intl_designator":"2024-193Q","name":"STARLINK-32294","alt_names":[],"object_type":"PAYLOAD","status":"ACTIVE","operator":null,"country":"US","launch_date":"2024-10-26","launch_site_code":"AFETR","launch_vehicle":null,"mission":null,"orbit_class":"UNKNOWN","rcs_meters":null,"size_class":null,"mass_kg":null,"dimensions":null,"purposes":["comms"],"wikipedia_slug":null,"has_3d_model":false,"image_url":null,"decayed_at":null,"tle_current":{"epoch":"2026-09-21T03:29:10.108896Z","epoch_age_seconds":132763,"freshness":"FRESH","line1":"1 61675U 24193Q   26264.14525589  .00000808  00000+0  37796-4 0  9994","line2":"2 61675  53.1601 261.5831 0001248  87.8153 272.2991 15.31704783106475","mean_motion":15.31704783,"eccentricity":0.0001248,"inclination_deg":53.1601,"raan_deg":261.5831,"arg_perigee_deg":87.8153,"mean_anomaly_deg":272.2991,"bstar":3.7796e-5,"rev_number":10647,"period_min":94.012894389454,"perigee_km":469.87099931901,"apogee_km":471.58047545826,"semimajor_km":6848.8627373886,"source":"CELESTRAK","updated_at":"2026-09-22T09:00:49.402698Z"}}}